When you browse on this site, cookies collect data to enhance your experience and personalize the content and advertising you see.
Visit our Privacy Policy to learn more. By continuing to use the site, you agree to this use of cookies and data.
  • In Hungary
  • List of Countries
  • For 7 days
  • Water Temperature
  • Weather Map
  • News
  • Weather Widgets
  • user-avatar
    Login

    Hourly Weather Kamysh

    Today, 20 October, Sunday

    Time Temperature Precipitation Wind Pressure Humidity
    00:00 +2°C° 0 mm 3 mps 749 mmHg 81%
    01:00 +3°C° 0 mm 3 mps 749 mmHg 82%
    02:00 +3°C° 0 mm 3 mps 749 mmHg 81%
    03:00 +3°C° 0 mm 3 mps 749 mmHg 81%
    04:00 +2°C° 0 mm 3 mps 750 mmHg 82%
    05:00 +2°C° 0 mm 3 mps 750 mmHg 81%
    06:00 +2°C° 0 mm 3 mps 750 mmHg 80%
    07:00 +1°C° 0 mm 4 mps 750 mmHg 79%
    08:00 +1°C° 0 mm 4 mps 751 mmHg 79%
    09:00 +1°C° 0 mm 4 mps 751 mmHg 78%
    10:00 +1°C° 0 mm 4 mps 751 mmHg 77%
    11:00 +3°C° 0 mm 4 mps 751 mmHg 76%
    12:00 +3°C° 0 mm 4 mps 751 mmHg 74%
    13:00 +4°C° 0 mm 4 mps 751 mmHg 73%
    14:00 +4°C° 0 mm 4 mps 751 mmHg 73%
    15:00 +4°C° 0 mm 4 mps 751 mmHg 73%
    16:00 +4°C° 0 mm 4 mps 751 mmHg 75%
    17:00 +3°C° 0 mm 4 mps 751 mmHg 76%
    18:00 +3°C° 0 mm 4 mps 751 mmHg 78%
    19:00 +1°C° 0 mm 4 mps 751 mmHg 79%
    20:00 +1°C° 0 mm 4 mps 751 mmHg 79%
    21:00 +1°C° 0 mm 4 mps 751 mmHg 79%
    22:00 0°C° 0 mm 5 mps 750 mmHg 78%
    23:00 0°C° 0 mm 5 mps 750 mmHg 79%

    Tomorrow, 21 October, Monday

    Time Temperature Precipitation Wind Pressure Humidity
    00:00 0°C° 0 mm 5 mps 750 mmHg 79%
    01:00 0°C° 0 mm 5 mps 750 mmHg 79%
    02:00 0°C° 0 mm 5 mps 750 mmHg 78%
    03:00 +1°C° 0 mm 5 mps 750 mmHg 77%
    04:00 +1°C° 0 mm 6 mps 750 mmHg 76%
    05:00 +1°C° 0 mm 6 mps 750 mmHg 77%
    06:00 +1°C° 0 mm 6 mps 750 mmHg 78%
    07:00 +1°C° 0 mm 6 mps 749 mmHg 79%
    08:00 +2°C° 0.2 mm 6 mps 749 mmHg 80%
    09:00 +2°C° 0.2 mm 6 mps 749 mmHg 82%
    10:00 +2°C° 0.2 mm 6 mps 749 mmHg 83%
    11:00 +3°C° 0.2 mm 6 mps 749 mmHg 83%
    12:00 +3°C° 0.2 mm 6 mps 749 mmHg 83%
    13:00 +3°C° 0.2 mm 6 mps 748 mmHg 83%
    14:00 +4°C° 0 mm 6 mps 748 mmHg 82%
    15:00 +5°C° 0 mm 6 mps 748 mmHg 81%
    16:00 +7°C° 0 mm 6 mps 748 mmHg 80%
    17:00 +5°C° 0 mm 6 mps 747 mmHg 81%
    18:00 +5°C° 0 mm 6 mps 747 mmHg 81%
    19:00 +5°C° 0 mm 6 mps 746 mmHg 82%
    20:00 +5°C° 0 mm 7 mps 746 mmHg 82%
    21:00 +5°C° 0 mm 7 mps 746 mmHg 82%
    22:00 +5°C° 0 mm 8 mps 745 mmHg 82%
    23:00 +5°C° 0 mm 8 mps 745 mmHg 82%

    Day after tomorrow, 22 October, Tuesday

    Time Temperature Precipitation Wind Pressure Humidity
    00:00 +5°C° 0 mm 8 mps 744 mmHg 82%
    01:00 +5°C° 0 mm 9 mps 743 mmHg 82%
    02:00 +5°C° 0 mm 8 mps 743 mmHg 82%
    03:00 +5°C° 0 mm 8 mps 742 mmHg 82%
    04:00 +5°C° 0 mm 8 mps 742 mmHg 83%
    05:00 +5°C° 0.4 mm 8 mps 742 mmHg 85%
    06:00 +5°C° 0.4 mm 7 mps 741 mmHg 86%
    07:00 +5°C° 0.4 mm 7 mps 741 mmHg 88%
    08:00 +5°C° 0.8 mm 7 mps 741 mmHg 90%
    09:00 +5°C° 0.8 mm 6 mps 741 mmHg 92%
    10:00 +7°C° 0.8 mm 5 mps 741 mmHg 94%
    11:00 +7°C° 0.1 mm 5 mps 742 mmHg 92%
    12:00 +8°C° 0.1 mm 4 mps 742 mmHg 90%
    13:00 +10°C° 0.1 mm 4 mps 742 mmHg 88%
    14:00 +10°C° 0 mm 4 mps 742 mmHg 85%
    15:00 +9°C° 0 mm 3 mps 742 mmHg 82%
    16:00 +9°C° 0 mm 3 mps 742 mmHg 78%
    17:00 +8°C° 0 mm 3 mps 743 mmHg 80%
    18:00 +7°C° 0 mm 3 mps 743 mmHg 81%
    19:00 +5°C° 0 mm 3 mps 743 mmHg 83%
    20:00 +4°C° 0 mm 3 mps 744 mmHg 82%
    21:00 +4°C° 0 mm 3 mps 744 mmHg 81%
    22:00 +4°C° 0 mm 3 mps 744 mmHg 80%
    23:00 +4°C° 0 mm 2 mps 744 mmHg 81%

    23 October, Wednesday

    Time Temperature Precipitation Wind Pressure Humidity
    00:00 +3°C° 0 mm 2 mps 744 mmHg 81%
    01:00 +2°C° 0 mm 2 mps 744 mmHg 82%
    02:00 +2°C° 0 mm 2 mps 745 mmHg 82%
    03:00 +3°C° 0 mm 1 mps 745 mmHg 83%
    04:00 +2°C° 0 mm 1 mps 745 mmHg 83%
    05:00 +2°C° 0 mm 1 mps 745 mmHg 85%
    06:00 +2°C° 0 mm 1 mps 745 mmHg 87%
    07:00 +1°C° 0 mm 1 mps 745 mmHg 89%
    08:00 +1°C° 0 mm 2 mps 745 mmHg 85%
    09:00 +2°C° 0 mm 2 mps 745 mmHg 80%
    10:00 +3°C° 0 mm 2 mps 745 mmHg 76%
    11:00 +3°C° 0 mm 3 mps 745 mmHg 73%
    12:00 +4°C° 0 mm 4 mps 745 mmHg 70%
    13:00 +4°C° 0 mm 4 mps 745 mmHg 67%
    14:00 +3°C° 0 mm 5 mps 744 mmHg 69%
    15:00 +5°C° 0 mm 5 mps 744 mmHg 71%
    16:00 +5°C° 0 mm 5 mps 744 mmHg 73%
    17:00 +4°C° 0.1 mm 6 mps 743 mmHg 77%
    18:00 +4°C° 0.1 mm 6 mps 743 mmHg 81%
    19:00 +3°C° 0.1 mm 6 mps 742 mmHg 84%
    20:00 +4°C° 0.1 mm 6 mps 742 mmHg 87%
    21:00 +4°C° 0.1 mm 6 mps 742 mmHg 89%
    22:00 +4°C° 0.1 mm 6 mps 742 mmHg 91%
    23:00 +5°C° 0.1 mm 6 mps 741 mmHg 92%

    24 October, Thursday

    Time Temperature Precipitation Wind Pressure Humidity
    00:00 +5°C° 0.1 mm 6 mps 741 mmHg 92%
    01:00 +5°C° 0.1 mm 6 mps 741 mmHg 93%
    02:00 +5°C° 0 mm 6 mps 741 mmHg 93%
    03:00 +6°C° 0 mm 5 mps 741 mmHg 93%
    04:00 +6°C° 0 mm 5 mps 741 mmHg 93%
    05:00 +6°C° 0 mm 4 mps 741 mmHg 94%
    06:00 +6°C° 0 mm 4 mps 742 mmHg 94%
    07:00 +7°C° 0 mm 3 mps 742 mmHg 95%
    08:00 +7°C° 0 mm 4 mps 742 mmHg 94%
    09:00 +7°C° 0 mm 4 mps 742 mmHg 93%
    10:00 +8°C° 0 mm 4 mps 743 mmHg 91%
    11:00 +8°C° 0 mm 4 mps 743 mmHg 85%
    12:00 +10°C° 0 mm 4 mps 743 mmHg 78%
    13:00 +10°C° 0 mm 4 mps 743 mmHg 72%
    14:00 +10°C° 0 mm 4 mps 743 mmHg 74%
    15:00 +10°C° 0 mm 3 mps 744 mmHg 77%
    16:00 +10°C° 0 mm 2 mps 744 mmHg 79%
    17:00 +9°C° 0 mm 2 mps 744 mmHg 82%
    18:00 +9°C° 0 mm 2 mps 744 mmHg 86%
    19:00 +10°C° 0 mm 1 mps 744 mmHg 89%
    20:00 +9°C° 0 mm 1 mps 744 mmHg 90%
    21:00 +9°C° 0 mm 1 mps 744 mmHg 90%
    22:00 +9°C° 0 mm 1 mps 745 mmHg 90%
    23:00 +9°C° 0 mm 1 mps 745 mmHg 90%

    25 October, Friday

    Time Temperature Precipitation Wind Pressure Humidity
    00:00 +8°C° 0 mm 1 mps 745 mmHg 90%
    01:00 +8°C° 0 mm 1 mps 745 mmHg 90%
    02:00 +7°C° 0 mm 1 mps 745 mmHg 90%
    03:00 +7°C° 0 mm 1 mps 745 mmHg 91%
    04:00 +7°C° 0 mm 1 mps 745 mmHg 91%
    05:00 +6°C° 0 mm 1 mps 745 mmHg 91%
    06:00 +6°C° 0 mm 1 mps 745 mmHg 91%
    07:00 +6°C° 0 mm 1 mps 745 mmHg 90%
    08:00 +7°C° 0 mm 1 mps 746 mmHg 87%
    09:00 +7°C° 0 mm 2 mps 746 mmHg 84%
    10:00 +8°C° 0 mm 2 mps 746 mmHg 81%
    11:00 +9°C° 0 mm 2 mps 746 mmHg 78%
    12:00 +10°C° 0 mm 3 mps 746 mmHg 76%
    13:00 +11°C° 0 mm 3 mps 746 mmHg 73%
    14:00 +10°C° 0 mm 3 mps 746 mmHg 74%
    15:00 +10°C° 0 mm 3 mps 746 mmHg 76%
    16:00 +10°C° 0 mm 3 mps 746 mmHg 77%
    17:00 +9°C° 0 mm 3 mps 746 mmHg 81%
    18:00 +8°C° 0 mm 3 mps 746 mmHg 86%
    19:00 +7°C° 0 mm 3 mps 746 mmHg 90%
    20:00 +7°C° 0 mm 3 mps 746 mmHg 91%
    21:00 +7°C° 0 mm 2 mps 746 mmHg 93%
    22:00 +6°C° 0 mm 2 mps 746 mmHg 94%
    23:00 +6°C° 0 mm 2 mps 746 mmHg 94%
    Show more